Tracking 18794 objects as of 23-September-2017
HD Live streaming from Space Station
objects crossing your sky now

LEMUR 2 MCPEAKE

Track LEMUR 2 MCPEAKE now!
10-day predictions
LEMUR 2 MCPEAKE is classified as:


NORAD ID: 42782
Int'l Code: 2017-036T
Perigee: 502.7 km
Apogee: 517.8 km
Inclination: 97.4 °
Period: 94.7 minutes
Semi major axis: 6881 km
RCS: Unknown
Launch date: June 23, 2017
Source: United States (US)
Launch site: SIRHARIKOTA (SRI)
Uplink (MHz):
Downlink (MHz):
Beacon (MHz):
Mode:
Call sign:
Status:

aabbcc
Your satellite tracking list
Your tracking list is empty





NASA's NSSDC Master Catalog

Two Line Element Set (TLE):
1 42782U 17036T   17266.13322100  .00002117  00000-0  98779-4 0  9999
2 42782  97.4404 324.7917 0010922 291.8972  68.1102 15.20906603 13901
Source of the keplerian elements: AFSPC